Stations météo

réclame
Mon MeteoGroup
Baltasound, Grande-Bretagne (3002): Température de l'air & dewpoint: 08.08.2018 20:00:00 - 14.08.2018 20:00:00 (BST)Baltasound, Grande-Bretagne (3002): Température de l'air -20cm: 08.08.2018 20:00:00 - 14.08.2018 20:00:00 (BST)Baltasound, Grande-Bretagne (3002): Vitesse du vent: 08.08.2018 20:00:00 - 14.08.2018 20:00:00 (BST)Baltasound, Grande-Bretagne (3002): Direction du vent: 08.08.2018 20:00:00 - 14.08.2018 20:00:00 (BST)Baltasound, Grande-Bretagne (3002): reduced air pressure: 08.08.2018 20:00:00 - 14.08.2018 20:00:00 (BST)Baltasound, Grande-Bretagne (3002): visibility: 08.08.2018 20:00:00 - 14.08.2018 20:00:00 (BST)Baltasound, Grande-Bretagne (3002): Quantités de précipitations: 08.08.2018 20:00:00 - 14.08.2018 20:00:00 (BST)
Date & Time tt [°C] td [°C] tt -20cm [°C] ff [km/h] ff [knt] dd ppp [hPa] vv [km] rr [mm]
14.08.2018 20:00:00 - - - - - - - - -
14.08.2018 19:00:00 14,2 13,2 - 13 7 SSW 1005,7 15 0,0
14.08.2018 18:00:00 13,9 13,6 - 11 6 SSE 1005,5 26 0,2
14.08.2018 17:00:00 13,5 13,2 - 11 6 SSE 1006,3 17 0,0
14.08.2018 16:00:00 13,7 12,4 - 18 10 SSE 1006,6 15 0,0
14.08.2018 15:00:00 14,1 13,1 - 22 12 SSE 1006,8 5 0,0
14.08.2018 14:00:00 13,9 11,9 - 22 12 S 1007,4 15 0,0
14.08.2018 13:00:00 14,1 11,2 - 22 12 S 1007,2 35 0,0
14.08.2018 12:00:00 14,5 11,7 - 22 12 S 1007,4 30 0,0
14.08.2018 11:00:00 14,3 11,7 - 18 10 SSE 1007,5 30 0,0
14.08.2018 10:00:00 14,2 11,0 14,7 16 9 SSE 1007,6 35 0,0
14.08.2018 09:00:00 13,7 11,0 - 15 8 SSE 1007,9 50 0,0
14.08.2018 08:00:00 13,3 11,4 - 13 7 SSE 1008,2 50 0,0
14.08.2018 07:00:00 12,8 11,3 - 13 7 SSE 1008,4 40 0,0
14.08.2018 06:00:00 10,6 10,4 - 5 3 SSE 1008,4 30 0,0
14.08.2018 05:00:00 9,6 9,3 - 2 1 NW 1008,7 30 0,0
14.08.2018 04:00:00 9,3 9,0 - 2 1 W 1008,9 30 0,0
14.08.2018 03:00:00 8,5 8,3 - 2 1 N 1009,5 35 0,0
14.08.2018 02:00:00 7,5 6,9 - 4 2 WSW 1009,9 35 0,0
14.08.2018 01:00:00 9,3 9,0 - 2 1 W 1010,0 45 0,0
14.08.2018 00:00:00 7,4 6,7 - 0 0 N 1009,9 40 0,0
13.08.2018 23:00:00 8,2 7,1 - 0 0 N 1010,3 40 0,0
13.08.2018 22:00:00 9,7 8,3 - 2 1 ESE 1010,5 45 0,0
13.08.2018 21:00:00 11,8 8,9 - 9 5 E 1010,5 45 0,0
13.08.2018 20:00:00 14,1 10,2 - 9 5 E 1010,6 50 0,0
13.08.2018 19:00:00 13,7 9,5 - 13 7 E 1010,5 45 0,0
13.08.2018 18:00:00 14,2 9,5 - 15 8 E 1010,7 50 0,0
13.08.2018 17:00:00 14,6 10,6 - 13 7 ENE 1011,1 50 0,0
13.08.2018 16:00:00 15,1 10,5 - 16 9 ENE 1011,4 50 0,0
13.08.2018 15:00:00 15,2 10,5 - 16 9 ENE 1011,6 26 0,0
13.08.2018 14:00:00 15,2 10,1 - 18 10 ENE 1011,8 40 0,0
13.08.2018 13:00:00 15,3 10,5 - 18 10 ENE 1012,0 22 0,0
13.08.2018 12:00:00 15,1 10,3 - 18 10 ENE 1012,0 50 0,0
13.08.2018 11:00:00 14,8 10,4 - 18 10 ENE 1012,0 15 0,0
13.08.2018 10:00:00 14,6 9,4 14,7 21 11 ENE 1012,0 40 0,0
13.08.2018 09:00:00 13,6 9,5 - 16 9 ENE 1012,0 30 0,0
13.08.2018 08:00:00 13,9 10,1 - 16 9 ENE 1012,0 40 0,0
13.08.2018 07:00:00 13,0 10,3 - 16 9 ENE 1011,9 30 0,0
13.08.2018 06:00:00 11,5 9,3 - 15 8 E 1011,9 40 0,0
13.08.2018 05:00:00 10,9 9,3 - 13 7 ENE 1012,0 45 0,0
13.08.2018 04:00:00 11,5 9,8 - 15 8 ENE 1012,2 30 0,0
13.08.2018 03:00:00 11,4 9,7 - 13 7 ENE 1012,3 26 0,0
13.08.2018 02:00:00 10,1 8,7 - 9 5 E 1012,6 45 0,0
13.08.2018 01:00:00 10,3 8,8 - 11 6 E 1012,8 28 0,0
13.08.2018 00:00:00 10,5 8,7 - 11 6 E 1013,0 35 0,0
12.08.2018 23:00:00 10,4 8,1 - 11 6 E 1013,2 45 0,0
12.08.2018 22:00:00 10,1 7,9 - 9 5 ENE 1013,4 40 0,0
12.08.2018 21:00:00 11,9 9,4 - 11 6 ENE 1013,5 50 0,0
12.08.2018 20:00:00 13,3 9,5 - 13 7 ENE 1013,5 50 0,0
12.08.2018 19:00:00 13,4 8,9 - 16 9 ENE 1013,6 35 0,0
12.08.2018 18:00:00 14,5 9,5 - 15 8 ENE 1013,6 35 0,0
12.08.2018 17:00:00 14,8 9,1 - 18 10 ENE 1013,6 30 0,0
12.08.2018 16:00:00 15,0 9,9 - 18 10 ENE 1013,7 30 0,0
12.08.2018 15:00:00 15,1 10,1 - 18 10 ENE 1014,0 45 0,0
12.08.2018 14:00:00 14,9 9,4 - 16 9 ENE 1014,2 45 0,0
12.08.2018 13:00:00 14,9 9,6 - 15 8 ENE 1014,1 45 0,0
12.08.2018 12:00:00 15,0 9,4 - 16 9 ENE 1014,0 45 0,0
12.08.2018 11:00:00 15,1 9,8 - 16 9 NNE 1013,9 18 0,0
12.08.2018 10:00:00 13,7 10,4 14,7 13 7 N 1014,1 22 0,0
12.08.2018 09:00:00 13,5 9,7 - 13 7 NNW 1014,0 30 0,0
12.08.2018 08:00:00 11,6 8,7 - 15 8 NNW 1014,2 50 0,0
12.08.2018 07:00:00 9,6 8,6 - 4 2 W 1014,2 35 0,0
12.08.2018 06:00:00 7,1 6,1 - 8 4 WNW 1014,2 45 0,0
12.08.2018 05:00:00 8,0 7,2 - 5 3 W 1014,4 50 0,0
12.08.2018 04:00:00 7,0 6,0 - 4 2 WSW 1014,6 50 0,0
12.08.2018 03:00:00 6,8 6,0 - 4 2 WSW 1015,0 50 0,0
12.08.2018 02:00:00 6,8 5,8 - 8 4 W 1015,2 50 0,0
12.08.2018 01:00:00 7,2 6,0 - 8 4 WNW 1015,6 50 0,0
12.08.2018 00:00:00 7,9 6,8 - 9 5 WNW 1015,7 40 0,0
11.08.2018 23:00:00 9,2 7,7 - 5 3 NW 1015,9 45 0,0
11.08.2018 22:00:00 9,9 8,1 - 5 3 W 1016,1 50 0,0
11.08.2018 21:00:00 11,7 8,7 - 9 5 WNW 1016,2 50 0,0
11.08.2018 20:00:00 12,9 8,3 - 13 7 WNW 1016,1 35 0,0
11.08.2018 19:00:00 14,0 8,5 - 15 8 NW 1016,1 45 0,0
11.08.2018 18:00:00 13,9 7,7 - 16 9 WNW 1016,1 30 0,0
11.08.2018 17:00:00 14,8 8,8 - 18 10 WNW 1016,1 50 0,0
11.08.2018 16:00:00 14,8 9,0 - 21 11 NW 1016,1 23 0,0
11.08.2018 15:00:00 13,5 8,1 - 18 10 NW 1016,1 40 0,0
11.08.2018 14:00:00 14,7 9,0 - 18 10 NW 1016,0 50 0,0
11.08.2018 13:00:00 14,0 8,3 - 16 9 WNW 1015,8 15 0,0
11.08.2018 12:00:00 14,1 10,4 - 16 9 W 1015,7 25 0,0
11.08.2018 11:00:00 13,5 9,3 - 9 5 WNW 1015,5 35 0,0
11.08.2018 10:00:00 12,5 8,5 14,7 13 7 WNW 1015,5 35 1,0
11.08.2018 09:00:00 10,0 7,6 - 18 10 NNW 1015,5 8 0,4
11.08.2018 08:00:00 10,8 8,1 - 13 7 W 1015,0 45 0,2
11.08.2018 07:00:00 11,7 8,8 - 13 7 W 1014,8 45 0,0
11.08.2018 06:00:00 10,7 8,4 - 13 7 W 1014,7 45 0,0
11.08.2018 05:00:00 10,4 7,8 - 15 8 W 1014,6 45 0,0
11.08.2018 04:00:00 10,7 7,8 - 18 10 W 1014,8 35 0,0
11.08.2018 03:00:00 12,0 8,1 - 22 12 W 1014,8 50 0,0
11.08.2018 02:00:00 11,9 8,1 - 21 11 W 1014,8 45 0,0
11.08.2018 01:00:00 11,6 8,0 - 18 10 W 1014,8 50 0,0
11.08.2018 00:00:00 11,8 8,1 - 18 10 W 1014,8 50 0,0
10.08.2018 23:00:00 11,0 8,7 - 15 8 W 1014,6 50 0,0
10.08.2018 22:00:00 11,0 7,2 - 16 9 WNW 1014,2 50 0,0
10.08.2018 21:00:00 12,1 8,4 - 16 9 W 1013,8 40 0,0
10.08.2018 20:00:00 12,3 7,7 - 18 10 W 1013,5 50 0,0
10.08.2018 19:00:00 12,8 8,0 - 18 10 WNW 1013,2 40 0,0
10.08.2018 18:00:00 13,7 7,6 - 18 10 WNW 1013,0 50 0,0
10.08.2018 17:00:00 13,9 8,4 - 22 12 NW 1012,7 30 0,0
10.08.2018 16:00:00 14,4 7,8 - 24 13 WNW 1012,2 40 0,0
10.08.2018 15:00:00 14,3 8,3 - 24 13 WNW 1011,8 30 0,0
10.08.2018 14:00:00 13,8 9,2 - 24 13 NW 1011,3 30 0,0
10.08.2018 13:00:00 13,8 8,5 - 21 11 NW 1010,8 30 0,0
10.08.2018 12:00:00 14,2 9,1 - 24 13 NW 1010,6 30 0,0
10.08.2018 11:00:00 13,0 8,1 - 22 12 NNW 1010,5 45 0,0
10.08.2018 10:00:00 13,7 10,0 14,9 18 10 NNW 1010,2 23 0,0
10.08.2018 09:00:00 12,8 9,4 - 16 9 NNW 1010,3 35 0,0
10.08.2018 08:00:00 13,1 10,5 - 18 10 NNW 1010,0 30 0,0
10.08.2018 07:00:00 11,2 10,5 - 5 3 NW 1009,9 50 0,0
10.08.2018 06:00:00 8,1 7,8 - 8 4 W 1009,9 35 0,0
10.08.2018 05:00:00 8,6 8,1 - 2 1 WSW 1010,1 27 0,0
10.08.2018 04:00:00 8,0 7,4 - 13 7 W 1010,2 30 0,0
10.08.2018 03:00:00 7,9 7,4 - 15 8 W 1010,4 45 0,0
10.08.2018 02:00:00 7,4 7,0 - 13 7 WSW 1010,7 28 0,0
10.08.2018 01:00:00 8,2 7,7 - 13 7 SW 1011,0 30 0,0
10.08.2018 00:00:00 9,5 8,9 - 16 9 SW 1010,5 23 0,0
09.08.2018 23:00:00 9,3 8,1 - 13 7 SW 1010,5 21 0,0
09.08.2018 22:00:00 11,0 9,2 - 16 9 SSW 1010,3 29 0,0
09.08.2018 21:00:00 12,5 9,4 - 16 9 SSW 1009,9 40 0,0
09.08.2018 20:00:00 13,8 10,1 - 21 11 S 1009,6 28 0,0
09.08.2018 19:00:00 13,9 9,8 - 28 15 S 1009,7 30 0,0
09.08.2018 18:00:00 14,6 9,5 - 28 15 S 1009,7 30 0,0
09.08.2018 17:00:00 15,2 9,1 - 31 17 S 1009,6 30 0,0
09.08.2018 16:00:00 15,6 9,5 - 34 18 S 1009,2 29 0,0
09.08.2018 15:00:00 15,9 9,3 - 34 18 S 1009,3 35 0,0
09.08.2018 14:00:00 15,9 10,1 - 31 17 S 1008,9 45 0,0
09.08.2018 13:00:00 16,4 9,3 - 34 18 S 1008,6 35 0,0
09.08.2018 12:00:00 15,6 9,1 - 31 17 S 1008,3 35 0,0
09.08.2018 11:00:00 15,5 8,5 - 29 16 S 1008,1 24 0,0
09.08.2018 10:00:00 14,8 8,6 15,0 28 15 S 1008,0 30 0,0
09.08.2018 09:00:00 14,0 9,5 - 24 13 SSW 1007,6 19 0,0
09.08.2018 08:00:00 12,9 9,9 - 24 13 SSW 1007,4 20 0,0
09.08.2018 07:00:00 11,9 9,8 - 21 11 SSW 1007,0 30 0,0
09.08.2018 06:00:00 11,1 9,8 - 18 10 SSW 1006,8 35 0,0
09.08.2018 05:00:00 11,3 9,5 - 18 10 SSW 1006,5 35 0,0
09.08.2018 04:00:00 11,4 9,4 - 21 11 SSW 1006,2 35 0,0
09.08.2018 03:00:00 11,9 9,9 - 21 11 SSW 1006,1 26 0,0
09.08.2018 02:00:00 12,0 10,3 - 18 10 S 1006,0 40 0,0
09.08.2018 01:00:00 11,8 10,0 - 18 10 S 1006,0 30 0,0
09.08.2018 00:00:00 11,6 10,3 - 22 12 SSW 1005,9 30 0,0
08.08.2018 23:00:00 11,3 9,8 - 21 11 SSW 1005,6 35 0,0
08.08.2018 22:00:00 10,2 8,8 - 13 7 SSW 1005,2 30 0,0
08.08.2018 21:00:00 11,5 8,8 - 13 7 SW 1004,8 27 0,0
08.08.2018 20:00:00 13,9 9,7 - 18 10 WSW 1004,0 40 0,0

tt = Température de l'air
td = dewpoint
tt -20cm = Température de l'air -20cm
ff = Vitesse du vent
dd = Direction du vent
ppp = reduced air pressure
vv = visibility
rr = Quantités de précipitations

stations d'obs. à proximité